Voltar ao catálogo

FENGYUN 1C DEB

AtivoPO
NORAD 31491·DEBRIS·🇨🇳 China

Lançado May 10, 1999 de Taiyuan Satellite Launch Center

Loading…

Próximas Passagens (próximas 24 horas)

TLE

AtualizadoSource: Space-Track

Época: Sep 12, 2026, 00:38 UTC

1 31491U 99025BWE 26255.02675466  .00001656  00000-0  80995-3 0  9991
2 31491  99.3000 181.6299 0048115 215.7143 144.0810 14.18823820676014

Acompanhe FENGYUN 1C DEB em tempo real com AllMySat

Download on the App Store